#timestamp,LO_Frequency,Hit,StdDev 
1501207215.5,286047002.8,N,117972.8
1501207235.3,286047002.1,N,115994.9
1501207255.2,286047001.9,N,114113.1
1501207275.0,286047002.5,N,114113.1
1501207275.9,286047002.5,N,1.1
1501207295.8,286047004.0,P,1.2
1501207315.6,286047000.2,N,1.6
1501207335.6,286047002.6,N,1.4
1501207355.4,286047001.8,N,1.3
1501207375.3,286047002.0,N,1.1
1501207395.7,286047001.3,N,1.1
1501207415.6,286047002.4,N,1.0
1501207435.4,286047002.4,N,1.0
1501207455.3,286047002.5,N,0.9
1501207475.1,286046999.9,N,1.1
1501207495.8,286047000.5,N,1.1
1501207515.7,286046999.7,N,1.2
1501207535.5,286047000.1,N,1.2
1501207555.4,286047002.1,N,1.2
1501207575.2,286046999.7,N,1.2
1501207595.0,286047002.5,N,1.2
1501207595.9,286047002.5,N,1.2
1501207615.8,286047001.5,N,1.2
1501207635.6,286047004.1,P,1.3
1501207655.5,286047002.7,N,1.0
1501207675.3,286047002.2,N,0.9
1501207695.1,286047001.9,N,0.9
1501207715.9,286047000.1,N,1.2
1501207735.7,286047002.4,N,1.1
1501207755.6,286047002.2,N,1.0
1501207775.4,286047002.5,N,1.0
1501207795.2,286047002.5,N,0.9
1501207815.1,286047001.7,N,0.9
1501207816.0,286047001.7,N,0.9
1501207835.8,286046999.9,N,1.0
1501207855.6,286047000.1,N,1.1
1501207875.5,286047002.7,N,1.1
1501207895.3,286047000.2,N,1.1
1501207915.2,286047002.7,N,1.1
1501207935.0,286047001.5,N,1.1
1501207935.9,286047001.5,N,1.1
1501207955.7,286047000.2,N,1.1
1501207975.6,286046999.7,N,1.2
1501207995.4,286046999.8,N,1.2
1501208015.3,286047001.5,N,1.2
1501208035.1,286047002.0,N,1.1
1501208055.8,286047002.0,N,1.1
1501208075.7,286047001.6,N,1.1
1501208095.5,286047002.4,N,1.1
1501208115.4,286047000.6,N,1.1
1501208135.2,286047000.3,N,1.1
1501208155.0,286047002.3,N,1.1
1501208155.9,286047002.3,N,1.1
1501208175.8,286047000.4,N,1.0
1501208195.6,286047002.8,N,1.0
1501208215.5,286047000.3,N,1.0
1501208235.3,286047002.0,N,1.0
1501208255.1,286047004.3,P,1.5
1501208275.9,286047002.8,N,1.2
1501208295.7,286047002.6,N,1.0
1501208315.6,286046999.9,N,1.5
1501208335.4,286047000.4,N,1.5
1501208355.2,286046999.7,N,1.6
1501208375.1,286046999.7,N,1.6
1501208376.0,286046999.7,N,1.6
1501208395.8,286047000.1,N,1.6
1501208415.7,286047002.8,N,1.6
1501208435.5,286047000.3,N,1.5
1501208455.3,286047000.0,N,1.5
1501208475.2,286047002.6,N,1.5
1501208495.0,286047002.5,N,1.5
1501208495.9,286047002.5,N,1.5
1501208515.7,286047000.0,N,1.5
1501208535.6,286047002.7,N,1.5
1501208555.4,286047002.5,N,1.4
1501208575.3,286047002.3,N,1.4
1501208595.1,286047002.5,N,1.4
1501208615.8,286047004.0,N,1.5
1501208635.7,286047001.3,N,1.4
1501208655.5,286047002.4,N,1.4
1501208675.4,286047004.0,N,1.5
1501208695.2,286047002.7,N,1.4
1501208715.0,286047001.5,N,1.4
1501208715.9,286047001.5,N,1.4
1501208735.8,286047001.6,N,1.4
1501208755.6,286047001.6,N,1.3
1501208775.5,286047002.0,N,1.3
1501208795.3,286047001.8,N,1.3
1501208815.1,286047002.0,N,1.2
1501208835.9,286047002.7,N,1.2
1501208855.7,286047000.4,N,1.2
1501208875.5,286047000.0,N,1.2
1501208895.4,286047000.3,N,1.2
1501208915.2,286047000.0,N,1.2
1501208935.1,286047000.0,N,1.2
1501208936.0,286047000.0,N,1.2
1501208955.8,286047002.6,N,1.2
1501208975.6,286047001.4,N,1.2
1501208995.5,286047002.1,N,1.1
1501209015.3,286046999.7,N,1.2
1501209035.2,286047002.6,N,1.2
1501209055.9,286047002.4,N,1.2
1501209075.7,286047002.6,N,1.1
1501209095.6,286046999.7,N,1.2
1501209115.4,286047000.1,N,1.2
1501209135.2,286047001.8,N,1.2
1501209155.1,286047001.4,N,1.2
1501209156.0,286047001.4,N,1.1
1501209175.8,286047004.0,P,1.3
1501209195.7,286047000.3,N,1.5
1501209215.5,286047001.2,N,1.4
1501209235.4,286047000.3,N,1.4
1501209255.2,286047000.3,N,1.3
1501209275.0,286047000.2,N,1.3
1501209275.9,286047000.2,N,1.2
1501209295.8,286047000.0,N,1.2
1501209315.6,286046999.7,N,1.2
1501209335.4,286047000.8,N,1.1
1501209355.3,286047000.3,N,1.1
1501209375.1,286046999.8,N,1.1
1501209395.9,286047000.1,N,1.0
1501209415.7,286046999.7,N,1.0
1501209435.5,286046999.9,N,1.0
1501209455.4,286047003.9,P,1.7
1501209475.2,286047002.5,N,1.4
1501209495.1,286047002.3,N,1.2
1501209496.0,286047002.3,N,1.1
1501209515.8,286047002.8,N,1.0
1501209535.6,286047002.0,N,0.9
1501209555.5,286047003.2,P,0.4
1501209575.3,286047000.7,N,1.0
1501209595.2,286047000.4,N,1.2
1501209615.0,286046999.9,N,1.2
1501209615.9,286046999.9,N,1.3
1501209635.7,286046998.6,N,1.4
1501209655.6,286047000.8,N,1.4
1501209675.4,286046998.1,N,1.5
1501209695.3,286047000.4,N,1.4
1501209715.1,286046998.5,N,1.5
1501209735.9,286046998.8,N,1.5
1501209755.7,286047000.7,N,1.4
1501209775.5,286046998.6,N,1.4
1501209795.4,286046999.0,N,1.4
1501209815.2,286046999.6,N,1.4
1501209835.1,286046999.4,N,1.3
1501209836.0,286046999.4,N,1.3
1501209855.8,286046999.2,N,1.3
1501209875.6,286046999.3,N,1.3
1501209895.5,286046999.6,N,1.2
1501209915.3,286046998.2,N,1.2
1501209935.2,286047000.6,N,1.2
1501209955.0,286047000.6,N,1.2
1501209955.9,286047000.6,N,1.2
1501209975.7,286047000.3,N,1.2
1501209995.6,286047002.5,N,1.3
1501210015.4,286047002.3,N,1.3
1501210035.3,286047002.4,N,1.4
1501210055.1,286046999.8,N,1.3
1501210075.8,286047002.7,N,1.4
1501210095.7,286046999.7,N,1.2
1501210115.5,286047002.5,N,1.3
1501210135.4,286047002.8,N,1.4
1501210155.2,286047002.8,N,1.5
1501210175.0,286047002.0,N,1.5
1501210175.9,286047002.0,N,1.5
1501210195.8,286047002.7,N,1.5
1501210215.6,286047002.8,N,1.5
1501210235.5,286047000.7,N,1.5
1501210255.3,286047001.0,N,1.5
1501210275.1,286047000.4,N,1.4
1501210295.9,286047000.8,N,1.4
1501210315.7,286047000.6,N,1.4
1501210335.6,286046998.6,N,1.4
1501210355.4,286047001.0,N,1.4
1501210375.2,286047000.8,N,1.3
1501210395.1,286046998.1,N,1.4
1501210396.0,286046998.1,N,1.5
1501210415.8,286046999.0,N,1.5
1501210435.6,286046997.1,N,1.6
1501210455.5,286046995.0,P,2.9
1501210475.3,286046995.8,N,2.6
1501210495.2,286046995.0,N,2.4
1501210515.0,286046995.3,N,2.2
1501210515.9,286046995.3,N,2.1
1501210535.8,286046996.0,N,1.9
1501210555.6,286046995.8,N,1.8
1501210575.4,286046995.1,N,1.7
1501210595.3,286046996.1,N,1.6
1501210615.1,286046995.5,N,1.6
1501210635.9,286046995.1,P,0.4
1501210655.7,286046999.3,N,1.8
1501210675.5,286046998.4,N,1.7
1501210695.4,286046999.5,N,1.8
1501210715.2,286046997.1,N,1.6
1501210735.1,286046997.2,N,1.5
1501210736.0,286046997.2,N,1.4
1501210755.8,286046995.4,P,1.0
1501210775.7,286046996.5,P,0.8
1501210795.5,286046996.9,P,0.8
